SKYNET 4E

Last updated on Mon Feb 16 2026 00:02:46 GMT+0000 (Coordinated Universal Time)

1 25639U 99009B 26046.54713727 -.00000002 00000+0 00000+0 0 9997 2 25639 11.9930 9.7516 0004295 276.2385 90.4118 0.99027506 49959
UTC large
Height (km)
Speed (km/s)
/
Latitude / Longitude
Inclination (degrees)
Orbital Period (minutes)
Azimuth
Elevation
Range (km)
Doppler Factor

Next 0 passes for location: London (51.5072 / 0.1276)

Sorry there are no passes over London.